Spokane, WA
on Tuesday, January 29, 2013

Tuesday
Previous Day Next Day
Daily Summary
 ActualAverageRecord
Temperature
Mean Temperature °F / °C 31°F / -1°C  
Max Temperature 35°F / 2°C 36°F / 2°C 53°F / 11°C (1967)
Min Temperature 25°F / -4°C 26°F / -3°C -24°F / -31°C (1950)
Degree Days
Heating Degree Days 35 34  
Month to date heating degree days 1187 1031  
Since 1 July heating degree days 3612 3865  
Cooling Degree Days 0 0  
Month to date cooling degree days 0 0  
Year to date cooling degree days 0 0  
Moisture
Dew Point 28°F / -2°C   
Average Humidity 85    
Maximum Humidity 100    
Minimum Humidity 70    
Precipitation
Precipitation 0.12 in / 3.05 cm 0.04 in / 1.02 cm 0.74 in / 1.88 cm (1890)
Month to date precipitation 1.63 1.69  
Year to date precipitation 1.63 1.69  
Snow
Snow 1.00 in / 2.54 cm 0.30 in / 0.76 cm 7.80 in / 19.81 cm (1961)
Month to date snowfall 14.2 10.9  
Since 1 July snowfall 38.2 33.0  
Snow Depth 1.00 in / 2.54 cm   
Wind
Wind Speed 4 mph / 6 km/h   
Max Wind Speed 13 mph / 21 km/h   
Max Gust Speed 15 mph / 24 km/h   
Visibility 4 miles / 7 kilometers   
Events Fog , Rain , Snow   

Key: T is trace of precipitation, MM is missing value
Source: NWS Daily Summary
Time(PST)TemperatureDew PointHumidity Pressure Visibility Wind DirectionWind SpeedGust SpeedPrecipitationEvents Conditions
12:53 AM 30.0°F / -1.1°C 28.0°F / -2.2°C 92% 29.89 in / 1012.2 hPa 5.0 miles / 8.0 kilometers Calm Calm - N/A   Overcast
1:53 AM 30.0°F / -1.1°C 28.0°F / -2.2°C 92% 29.92 in / 1013.1 hPa 7.0 miles / 11.3 kilometers WSW 3.5 mph / 5.6 km/h - N/A   Overcast
2:53 AM 28.9°F / -1.7°C 28.0°F / -2.2°C 96% 29.94 in / 1013.9 hPa 5.0 miles / 8.0 kilometers WSW 4.6 mph / 7.4 km/h - N/A   Overcast
3:53 AM 28.4°F / -2.0°C 28.4°F / -2.0°C 100% 29.89 in / 1012.1 hPa 0.5 miles / 0.8 kilometers Calm Calm - N/A   Overcast
4:53 AM 28.0°F / -2.2°C 26.1°F / -3.3°C 92% 29.99 in / 1015.5 hPa 0.5 miles / 0.8 kilometers West 4.6 mph / 7.4 km/h - N/A   Overcast
5:53 AM 27.0°F / -2.8°C 26.1°F / -3.3°C 96% 30.02 in / 1016.4 hPa 0.5 miles / 0.8 kilometers Calm Calm - N/A   Overcast
6:53 AM 27.0°F / -2.8°C 25.0°F / -3.9°C 92% 30.05 in / 1017.4 hPa 0.5 miles / 0.8 kilometers West 5.8 mph / 9.3 km/h - N/A Fog Light Freezing Fog
7:53 AM 26.1°F / -3.3°C 25.0°F / -3.9°C 96% 30.09 in / 1018.8 hPa 0.5 miles / 0.8 kilometers WSW 3.5 mph / 5.6 km/h - N/A   Overcast
8:08 AM 26.6°F / -3.0°C 24.8°F / -4.0°C 93% 30.02 in / 1016.5 hPa 1.0 miles / 1.6 kilometers SW 3.5 mph / 5.6 km/h - N/A   Overcast
8:45 AM 26.6°F / -3.0°C 24.8°F / -4.0°C 93% 30.03 in / 1016.8 hPa 7.0 miles / 11.3 kilometers Calm Calm - N/A Fog Patches of Fog
8:53 AM 26.1°F / -3.3°C 25.0°F / -3.9°C 96% 30.12 in / 1019.7 hPa 8.0 miles / 12.9 kilometers Calm Calm - N/A Fog Mostly Cloudy
9:53 AM 28.0°F / -2.2°C 25.0°F / -3.9°C 88% 30.14 in / 1020.7 hPa 10.0 miles / 16.1 kilometers Calm Calm - N/A Fog Mostly Cloudy
10:53 AM 28.0°F / -2.2°C 25.0°F / -3.9°C 88% 30.17 in / 1021.5 hPa 10.0 miles / 16.1 kilometers WSW 3.5 mph / 5.6 km/h - N/A   Mostly Cloudy
11:53 AM 30.9°F / -0.6°C 26.1°F / -3.3°C 82% 30.17 in / 1021.7 hPa 10.0 miles / 16.1 kilometers West 3.5 mph / 5.6 km/h - N/A   Mostly Cloudy
12:53 PM 34.0°F / 1.1°C 27.0°F / -2.8°C 75% 30.18 in / 1021.9 hPa 10.0 miles / 16.1 kilometers WSW 5.8 mph / 9.3 km/h - N/A   Mostly Cloudy
1:53 PM 35.1°F / 1.7°C 26.1°F / -3.3°C 70% 30.19 in / 1022.1 hPa 10.0 miles / 16.1 kilometers Calm Calm - N/A   Mostly Cloudy
2:53 PM 35.1°F / 1.7°C 28.0°F / -2.2°C 76% 30.19 in / 1022.4 hPa 10.0 miles / 16.1 kilometers SW 8.1 mph / 13.0 km/h - N/A   Mostly Cloudy
3:53 PM 34.0°F / 1.1°C 28.0°F / -2.2°C 79% 30.19 in / 1022.4 hPa 10.0 miles / 16.1 kilometers South 4.6 mph / 7.4 km/h - N/A   Overcast
4:53 PM 33.1°F / 0.6°C 27.0°F / -2.8°C 78% 30.20 in / 1022.5 hPa 10.0 miles / 16.1 kilometers SSW 9.2 mph / 14.8 km/h - N/A   Overcast
5:53 PM 32.0°F / 0.0°C 28.9°F / -1.7°C 88% 30.21 in / 1022.9 hPa 1.2 miles / 2.0 kilometers SSW 6.9 mph / 11.1 km/h - 0.00 in / 0.0 cm Snow Light Snow
6:53 PM 30.9°F / -0.6°C 30.0°F / -1.1°C 96% 30.20 in / 1022.5 hPa 1.2 miles / 2.0 kilometers Calm Calm - 0.02 in / 0.5 cm Snow Light Snow
7:02 PM 30.2°F / -1.0°C 30.2°F / -1.0°C 100% 30.12 in / 1019.9 hPa 0.8 miles / 1.2 kilometers SE 3.5 mph / 5.6 km/h - 0.00 in / 0.0 cm Snow Light Snow
7:53 PM 32.0°F / 0.0°C 30.0°F / -1.1°C 92% 30.18 in / 1022.0 hPa 1.0 miles / 1.6 kilometers ESE 4.6 mph / 7.4 km/h - 0.02 in / 0.5 cm Snow Light Snow
8:53 PM 32.0°F / 0.0°C 30.9°F / -0.6°C 96% 30.17 in / 1021.7 hPa 1.0 miles / 1.6 kilometers ESE 3.5 mph / 5.6 km/h - 0.03 in / 0.8 cm Snow Light Snow
8:59 PM 32.0°F / 0.0°C 30.2°F / -1.0°C 93% 30.10 in / 1019.2 hPa 0.5 miles / 0.8 kilometers ESE 3.5 mph / 5.6 km/h - 0.00 in / 0.0 cm Snow Light Snow
9:53 PM 33.1°F / 0.6°C 32.0°F / 0.0°C 96% 30.15 in / 1021.0 hPa 1.5 miles / 2.4 kilometers South 4.6 mph / 7.4 km/h - 0.03 in / 0.8 cm Snow Light Snow
10:38 PM 33.8°F / 1.0°C 32.0°F / 0.0°C 93% 30.09 in / 1018.8 hPa 3.0 miles / 4.8 kilometers Calm Calm - 0.01 in / 0.3 cm Snow Light Snow
10:53 PM 33.1°F / 0.6°C 32.0°F / 0.0°C 96% 30.14 in / 1020.7 hPa 3.0 miles / 4.8 kilometers SSW 5.8 mph / 9.3 km/h - 0.02 in / 0.5 cm Rain , Snow Light Rain
11:53 PM 34.0°F / 1.1°C 33.1°F / 0.6°C 96% 30.14 in / 1020.7 hPa 7.0 miles / 11.3 kilometers SW 6.9 mph / 11.1 km/h - 0.00 in / 0.0 cm   Overcast
Moon Phase
Jan. 29 Feb. 03 Feb. 10 Feb. 17 Feb. 25
Sunrise:07:20 AM (PST) Moon Rise:08:05 PM (PST)1/29
Sunset:04:47 PM (PST) Moon Set:08:04 AM (PST)1/29

Copyright © 2014 The Weather Underground, Inc.